TimePST,TemperatureF,Dew PointF,Humidity,Sea Level PressureIn,VisibilityMPH,Wind Direction,Wind SpeedMPH,Gust SpeedMPH,PrecipitationIn,Events,Conditions,WindDirDegrees,DateUTC
12:53 AM,57.0,54.0,89,30.06,10.0,SE,12.7,-,N/A,,Clear,130,2012-12-01 08:53:00
1:53 AM,57.0,54.0,89,30.06,10.0,SE,11.5,-,N/A,,Clear,130,2012-12-01 09:53:00
2:53 AM,57.0,54.0,89,30.08,10.0,SE,12.7,-,N/A,,Overcast,130,2012-12-01 10:53:00
4:53 AM,59.0,54.0,83,30.06,10.0,ESE,16.1,-,N/A,,Overcast,120,2012-12-01 12:53:00
6:53 AM,59.0,53.1,81,30.07,10.0,SE,15.0,-,N/A,,Scattered Clouds,130,2012-12-01 14:53:00
7:53 AM,59.0,54.0,83,30.07,10.0,SE,12.7,-,N/A,,Partly Cloudy,130,2012-12-01 15:53:00
8:53 AM,60.1,55.0,83,30.06,10.0,SE,13.8,-,N/A,,Mostly Cloudy,140,2012-12-01 16:53:00
9:53 AM,60.1,55.0,83,30.07,10.0,SE,15.0,-,0.00,,Mostly Cloudy,130,2012-12-01 17:53:00
10:37 AM,60.8,55.4,82,30.09,1.8,SE,11.5,-,0.06,Rain,Rain,140,2012-12-01 18:37:00
11:22 AM,60.8,57.2,88,30.08,0.8,SE,12.7,-,0.07,Rain,Rain,140,2012-12-01 19:22:00
11:29 AM,60.8,57.2,88,30.08,1.5,SE,12.7,-,0.08,Rain,Light Rain,140,2012-12-01 19:29:00
11:43 AM,60.8,57.2,88,30.07,2.5,SE,11.5,-,0.08,Rain,Light Rain,130,2012-12-01 19:43:00
11:53 AM,61.0,57.9,90,30.07,5.0,ESE,11.5,-,0.08,,Overcast,120,2012-12-01 19:53:00
12:03 PM,60.8,57.2,88,30.06,9.0,SE,13.8,-,N/A,,Overcast,130,2012-12-01 20:03:00
12:53 PM,62.1,57.9,86,30.05,10.0,SE,12.7,-,N/A,,Overcast,130,2012-12-01 20:53:00
1:13 PM,62.6,57.2,82,30.04,10.0,ESE,13.8,-,N/A,,Overcast,120,2012-12-01 21:13:00
1:53 PM,61.0,57.9,90,30.04,10.0,ESE,10.4,-,0.00,,Overcast,110,2012-12-01 21:53:00
2:53 PM,61.0,57.9,90,30.03,2.5,ESE,13.8,-,0.00,Rain,Light Rain,120,2012-12-01 22:53:00
3:00 PM,60.8,57.2,88,30.03,6.0,ESE,12.7,-,0.00,Rain,Light Rain,120,2012-12-01 23:00:00
3:18 PM,60.8,57.2,88,30.03,2.0,ESE,9.2,-,0.01,Rain,Light Rain,120,2012-12-01 23:18:00
3:22 PM,60.8,57.2,88,30.03,3.0,ESE,10.4,-,0.01,Rain,Light Rain,120,2012-12-01 23:22:00
3:49 PM,60.8,57.2,88,30.04,1.8,ESE,6.9,-,0.03,Rain,Rain,110,2012-12-01 23:49:00
3:53 PM,61.0,57.9,90,30.04,1.8,ESE,6.9,-,0.04,Rain,Rain,120,2012-12-01 23:53:00
3:57 PM,60.8,57.2,88,30.04,3.0,SE,6.9,-,0.00,Rain,Light Rain,130,2012-12-01 23:57:00
4:53 PM,61.0,57.9,90,30.01,10.0,SE,9.2,-,0.00,,Mostly Cloudy,130,2012-12-02 00:53:00
5:53 PM,60.1,57.9,93,30.01,10.0,East,5.8,-,0.00,,Overcast,100,2012-12-02 01:53:00
6:53 PM,60.1,57.9,93,30.01,10.0,ESE,5.8,-,0.00,,Overcast,110,2012-12-02 02:53:00
7:53 PM,60.1,57.0,90,30.00,9.0,SE,10.4,-,0.00,,Overcast,130,2012-12-02 03:53:00
8:53 PM,60.1,57.0,90,30.01,10.0,ESE,9.2,-,0.02,,Overcast,110,2012-12-02 04:53:00
9:53 PM,61.0,57.0,87,29.99,10.0,SE,15.0,21.9,0.01,,Overcast,130,2012-12-02 05:53:00
10:53 PM,61.0,57.0,87,29.99,9.0,SE,17.3,-,0.00,Rain,Light Rain,130,2012-12-02 06:53:00
11:53 PM,61.0,55.9,83,30.00,10.0,SE,11.5,-,0.01,,Overcast,140,2012-12-02 07:53:00